When you browse on this site, cookies collect data to enhance your experience and personalize the content and advertising you see.
Visit our Privacy Policy to learn more. By continuing to use the site, you agree to this use of cookies and data.
  • In United Kingdom
  • List of Countries
  • For 7 days
  • Water Temperature
  • Satellite Maps
  • Weather Map
  • Weather Widgets
  • user-avatar
    Login

    Hourly Weather Yangibino

    Today, 16 June, Sunday

    Time Temperature Precipitation Wind Pressure Humidity
    00:00 +23°C° 0 mm 1 mps 713 mmHg 23%
    01:00 +22°C° 0 mm 1 mps 713 mmHg 24%
    02:00 +22°C° 0 mm 1 mps 713 mmHg 25%
    03:00 +21°C° 0 mm 1 mps 713 mmHg 26%
    04:00 +20°C° 0 mm 1 mps 713 mmHg 26%
    05:00 +23°C° 0 mm 1 mps 714 mmHg 23%
    06:00 +25°C° 0 mm 1 mps 714 mmHg 19%
    07:00 +28°C° 0 mm 1 mps 715 mmHg 15%
    08:00 +29°C° 0 mm 2 mps 715 mmHg 14%
    09:00 +30°C° 0 mm 2 mps 715 mmHg 12%
    10:00 +31°C° 0 mm 3 mps 715 mmHg 11%
    11:00 +31°C° 0 mm 3 mps 715 mmHg 10%
    12:00 +33°C° 0 mm 4 mps 714 mmHg 10%
    13:00 +34°C° 0 mm 4 mps 714 mmHg 9%
    14:00 +34°C° 0 mm 5 mps 714 mmHg 9%
    15:00 +34°C° 0 mm 5 mps 714 mmHg 10%
    16:00 +34°C° 0 mm 6 mps 714 mmHg 10%
    17:00 +32°C° 0 mm 6 mps 714 mmHg 13%
    18:00 +30°C° 0 mm 5 mps 714 mmHg 15%
    19:00 +28°C° 0 mm 5 mps 714 mmHg 17%
    20:00 +27°C° 0 mm 5 mps 714 mmHg 19%
    21:00 +26°C° 0 mm 4 mps 714 mmHg 21%
    22:00 +25°C° 0 mm 4 mps 714 mmHg 22%
    23:00 +23°C° 0 mm 4 mps 713 mmHg 24%

    Tomorrow, 17 June, Monday

    Time Temperature Precipitation Wind Pressure Humidity
    00:00 +22°C° 0 mm 4 mps 713 mmHg 25%
    01:00 +22°C° 0 mm 3 mps 713 mmHg 27%
    02:00 +21°C° 0 mm 3 mps 713 mmHg 28%
    03:00 +20°C° 0 mm 3 mps 713 mmHg 28%
    04:00 +20°C° 0 mm 3 mps 713 mmHg 29%
    05:00 +22°C° 0 mm 4 mps 713 mmHg 26%
    06:00 +23°C° 0 mm 4 mps 713 mmHg 23%
    07:00 +26°C° 0 mm 5 mps 713 mmHg 21%
    08:00 +27°C° 0 mm 5 mps 713 mmHg 19%
    09:00 +29°C° 0 mm 5 mps 713 mmHg 17%
    10:00 +32°C° 0 mm 5 mps 713 mmHg 15%
    11:00 +33°C° 0 mm 5 mps 713 mmHg 15%
    12:00 +34°C° 0 mm 5 mps 713 mmHg 14%
    13:00 +35°C° 0 mm 5 mps 713 mmHg 13%
    14:00 +35°C° 0 mm 5 mps 712 mmHg 13%
    15:00 +35°C° 0 mm 6 mps 712 mmHg 13%
    16:00 +35°C° 0 mm 6 mps 712 mmHg 14%
    17:00 +34°C° 0 mm 6 mps 712 mmHg 15%
    18:00 +32°C° 0 mm 6 mps 712 mmHg 17%
    19:00 +30°C° 0 mm 6 mps 712 mmHg 18%
    20:00 +29°C° 0 mm 5 mps 712 mmHg 19%
    21:00 +28°C° 0 mm 5 mps 712 mmHg 21%
    22:00 +27°C° 0 mm 5 mps 712 mmHg 22%
    23:00 +26°C° 0 mm 4 mps 712 mmHg 23%

    Day after tomorrow, 18 June, Tuesday

    Time Temperature Precipitation Wind Pressure Humidity
    00:00 +26°C° 0 mm 4 mps 711 mmHg 24%
    01:00 +25°C° 0 mm 3 mps 711 mmHg 25%
    02:00 +25°C° 0 mm 3 mps 711 mmHg 26%
    03:00 +25°C° 0 mm 3 mps 711 mmHg 26%
    04:00 +24°C° 0 mm 3 mps 711 mmHg 27%
    05:00 +27°C° 0 mm 4 mps 711 mmHg 23%
    06:00 +29°C° 0 mm 6 mps 712 mmHg 20%
    07:00 +32°C° 0 mm 7 mps 712 mmHg 17%
    08:00 +33°C° 0 mm 7 mps 712 mmHg 16%
    09:00 +34°C° 0 mm 7 mps 712 mmHg 14%
    10:00 +35°C° 0 mm 8 mps 712 mmHg 13%
    11:00 +36°C° 0 mm 7 mps 712 mmHg 13%
    12:00 +36°C° 0 mm 7 mps 712 mmHg 13%
    13:00 +38°C° 0 mm 7 mps 712 mmHg 12%
    14:00 +38°C° 0 mm 7 mps 712 mmHg 12%
    15:00 +38°C° 0 mm 6 mps 711 mmHg 12%
    16:00 +38°C° 0 mm 6 mps 711 mmHg 12%
    17:00 +35°C° 0 mm 6 mps 711 mmHg 14%
    18:00 +34°C° 0 mm 5 mps 711 mmHg 15%
    19:00 +32°C° 0 mm 4 mps 711 mmHg 16%
    20:00 +30°C° 0 mm 4 mps 711 mmHg 18%
    21:00 +29°C° 0 mm 4 mps 712 mmHg 19%
    22:00 +28°C° 0 mm 4 mps 712 mmHg 21%
    23:00 +27°C° 0 mm 4 mps 712 mmHg 22%

    19 June, Wednesday

    Time Temperature Precipitation Wind Pressure Humidity
    00:00 +27°C° 0 mm 3 mps 711 mmHg 23%
    01:00 +26°C° 0 mm 3 mps 711 mmHg 25%
    02:00 +26°C° 0 mm 3 mps 711 mmHg 24%
    03:00 +25°C° 0 mm 3 mps 711 mmHg 24%
    04:00 +25°C° 0 mm 3 mps 711 mmHg 24%
    05:00 +27°C° 0 mm 3 mps 711 mmHg 22%
    06:00 +29°C° 0 mm 4 mps 711 mmHg 20%
    07:00 +32°C° 0 mm 4 mps 712 mmHg 18%
    08:00 +33°C° 0 mm 5 mps 712 mmHg 17%
    09:00 +34°C° 0 mm 6 mps 712 mmHg 16%
    10:00 +35°C° 0 mm 7 mps 712 mmHg 15%
    11:00 +35°C° 0 mm 7 mps 712 mmHg 14%
    12:00 +36°C° 0 mm 7 mps 712 mmHg 14%
    13:00 +36°C° 0 mm 7 mps 711 mmHg 13%
    14:00 +36°C° 0 mm 7 mps 711 mmHg 13%
    15:00 +36°C° 0 mm 7 mps 711 mmHg 13%
    16:00 +36°C° 0 mm 7 mps 711 mmHg 13%
    17:00 +34°C° 0 mm 6 mps 711 mmHg 14%
    18:00 +33°C° 0 mm 5 mps 711 mmHg 16%
    19:00 +32°C° 0 mm 4 mps 711 mmHg 17%
    20:00 +30°C° 0 mm 4 mps 711 mmHg 18%
    21:00 +29°C° 0 mm 5 mps 711 mmHg 18%
    22:00 +28°C° 0 mm 5 mps 711 mmHg 19%
    23:00 +27°C° 0 mm 4 mps 711 mmHg 19%

    20 June, Thursday

    Time Temperature Precipitation Wind Pressure Humidity
    00:00 +27°C° 0 mm 4 mps 710 mmHg 19%
    01:00 +26°C° 0 mm 3 mps 710 mmHg 20%
    02:00 +26°C° 0 mm 3 mps 710 mmHg 19%
    03:00 +25°C° 0 mm 3 mps 710 mmHg 19%
    04:00 +25°C° 0 mm 2 mps 710 mmHg 18%
    05:00 +27°C° 0 mm 2 mps 710 mmHg 17%
    06:00 +29°C° 0 mm 2 mps 711 mmHg 15%
    07:00 +31°C° 0 mm 2 mps 711 mmHg 14%
    08:00 +33°C° 0 mm 3 mps 712 mmHg 14%
    09:00 +35°C° 0 mm 3 mps 712 mmHg 14%
    10:00 +36°C° 0 mm 4 mps 712 mmHg 14%
    11:00 +36°C° 0 mm 4 mps 711 mmHg 13%
    12:00 +36°C° 0 mm 4 mps 711 mmHg 13%
    13:00 +37°C° 0 mm 4 mps 711 mmHg 13%
    14:00 +37°C° 0 mm 4 mps 711 mmHg 13%
    15:00 +37°C° 0 mm 4 mps 711 mmHg 13%
    16:00 +37°C° 0 mm 4 mps 711 mmHg 13%
    17:00 +36°C° 0 mm 4 mps 711 mmHg 14%
    18:00 +35°C° 0 mm 4 mps 711 mmHg 15%
    19:00 +34°C° 0 mm 4 mps 711 mmHg 16%
    20:00 +32°C° 0 mm 4 mps 711 mmHg 17%
    21:00 +30°C° 0 mm 3 mps 711 mmHg 18%
    22:00 +29°C° 0 mm 3 mps 711 mmHg 19%
    23:00 +28°C° 0 mm 3 mps 710 mmHg 19%

    21 June, Friday

    Time Temperature Precipitation Wind Pressure Humidity
    00:00 +28°C° 0 mm 3 mps 710 mmHg 19%
    01:00 +28°C° 0 mm 3 mps 710 mmHg 19%
    02:00 +27°C° 0 mm 3 mps 710 mmHg 20%
    03:00 +26°C° 0 mm 2 mps 710 mmHg 21%
    04:00 +25°C° 0 mm 2 mps 710 mmHg 22%
    05:00 +27°C° 0 mm 2 mps 710 mmHg 19%
    06:00 +29°C° 0 mm 2 mps 711 mmHg 17%
    07:00 +32°C° 0 mm 2 mps 711 mmHg 15%
    08:00 +34°C° 0 mm 3 mps 711 mmHg 15%
    09:00 +35°C° 0 mm 3 mps 712 mmHg 14%
    10:00 +36°C° 0 mm 3 mps 712 mmHg 13%
    11:00 +37°C° 0 mm 4 mps 712 mmHg 12%
    12:00 +38°C° 0 mm 4 mps 711 mmHg 12%
    13:00 +38°C° 0 mm 4 mps 711 mmHg 11%
    14:00 +39°C° 0 mm 5 mps 711 mmHg 12%
    15:00 +39°C° 0 mm 6 mps 711 mmHg 12%
    16:00 +39°C° 0 mm 6 mps 711 mmHg 12%
    17:00 +38°C° 0 mm 6 mps 711 mmHg 12%
    18:00 +35°C° 0 mm 6 mps 711 mmHg 13%
    19:00 +34°C° 0 mm 5 mps 711 mmHg 13%
    20:00 +33°C° 0 mm 5 mps 711 mmHg 14%
    21:00 +30°C° 0 mm 5 mps 711 mmHg 15%
    22:00 +29°C° 0 mm 5 mps 712 mmHg 16%
    23:00 +28°C° 0 mm 5 mps 711 mmHg 18%
    Show more